Tracking 30692 objects as of 16-Jun-2025
HD Live streaming from Space Station
objects crossing your sky now

STARLINK-11173

Track STARLINK-11173 now!
10-day predictions
STARLINK-11173 is classified as:


NORAD ID: 60192
Int'l Code: 2024-124K
Perigee: 366.6 km
Apogee: 367.1 km
Inclination: 53.2 °
Period: 91.7 minutes
Semi major axis: 6737 km
RCS: Unknown
Launch date: July 3, 2024
Source: United States (US)
Launch site: AIR FORCE EASTERN TEST RANGE (AFETR)
Your satellite tracking list
Your tracking list is empty




NASA's NSSDC Master Catalog

Two Line Element Set (TLE):
1 60192U 24124K   25167.05227382  .00010069  00000-0  87843-4 0  9991
2 60192  53.1580  35.8286 0000388  69.5347 290.5712 15.69713920 55837
Source of the keplerian elements: AFSPC